SCP
0 0 0 0 0 0 0 0 0 0 0 0 0 0 0 0 0 0 0 0 0 0 0 0 0 0 0 0 0 0 0 0 0 0 0 0 0 1
0 0 0 0 0 0 0 0 0 0 0 0 0 0 0 0 0 0 0 0 0 0 0 0 0 0 0 0 0 0 0 0 0 0 0 0 0 0
0 0 0 0 0 0 0 0 0 0 0 0 0 0 0 0 0 0 0 0 0 0 0 0 0 0 0 0 0 0 0 0 0 0 0 0 0 0
0 0 0 0 0 0 0 0 0 0 0 0 0 0 0 0 0 0 0 0 0 0 0 0 0 0 0 0 0 0 0 0 0 0 0 0 0 0
0 0 0 0 0 0 0 0 0 0 0 0 0 0 0 0 0 0 0 0 0 0 0 0 0 0 0 0 0 0 0 0 0 0 0 0 0 0
0 0 0 0 0 0 0 0 0 0 0 0 0 0 0 0 0 0 0 0 0 0 0 0 0 0 0 0 0 0 0 0 0 0 0 0 0 0
0 0 0 0 0 0 0 0 0 0 0 0 0 0 0 0 0 0 0 0 0 0 0 0 0 0 0 0 0 0 0 0 0 0 0 0 0 0
0 0 0 0 0 0 0 0 0 0 0 0 0 0 0 0 0 0 0 0 0 0 0 0 0 -0 -0 -0 0 0 0 0 0 0 0 0 0 0
0 0 0 0 0 0 0 0 0 0 0 0 0 0 0 0 0 0 0 0 0 0 0 0 0 0 0 -0 -0 -0 0 0 0 0 0 0 0 0
0 0 0 0 0 0 0 0 0 0 0 0 0 0 0 0 0 0 0 0 0 0 0 0 0 0 0 0 -0 -0 0 0 0 0 0 0 0 0
0 0 0 0 0 0 0 0 0 0 0 0 0 0 0 0 0 0 0 0 0 0 0 0 0 0 0 0 0 -0 -0 0 0 0 0 0 0 0
0 0 0 0 0 0 0 0 0 0 0 0 0 0 0 0 0 0 0 0 0 0 0 0 0 0 0 0 0 -0 -0 -0 0 -0 0 -0 0 0
0 0 0 0 0 0 0 0 0 0 0 0 0 0 0 0 0 0 0 0 0 0 0 0 0 0 0 0 0 0 -0 -0 0 0 -0 0 0 0
0 0 0 0 0 0 0 0 0 0 0 0 0 0 0 0 0 0 0 0 0 0 0 0 0 0 0 0 0 0 0 0 -0 0 0 0 -0 0
0 0 0 0 0 0 0 0 0 0 0 0 0 0 0 0 0 0 0 0 0 0 0 0 0 0 0 0 0 0 0 0 0 0 0 0 0 0
0 0 0 0 0 0 0 0 0 0 0 0 0 0 0 0 0 0 0 0 0 0 0 0 0 0 0 0 0 0 0 0 0 0 -0 0 0 0
0 0 0 0 0 0 0 0 0 0 0 0 0 0 0 0 0 0 0 0 0 0 0 0 0 0 0 0 0 0 0 0 0 0 0 -0 -0 0
0 0 -0 -0 0 0 0 0 0 0 0 0 0 0 0 0 0 0 0 0 0 0 0 0 0 0 0 0 -0 0 0 0 0 0 0 0 -0 -0
0 -0 0 -0 -0 0 0 0 0 0 0 0 0 0 0 0 0 0 0 0 0 0 0 0 0 0 0 0 0 0 0 0 0 0 0 0 0 -0
-0 0 0 0 0 0 0 0 0 0 0 0 0 0 0 0 0 0 0 0 0 0 0 0 0 0 0 0 0 0 0 0 0 0 0 0 0 -0
-0 0 0 0 0 0 0 0 0 0 0 0 0 0 0 0 0 0 0 0 0 0 0 0 0 0 0 0 0 0 0 0 0 0 0 -0 -0 0
0 0 0 0 0 0 0 0 0 0 0 0 0 0 0 0 0 0 0 0 0 0 0 0 0 0 0 0 0 0 0 0 0 0 0 -0 -0 0
0 0 0 0 0 0 0 0 0 0 0 0 0 0 0 0 0 0 0 0 0 0 0 0 0 0 0 0 0 0 0 0 0 0 0 0 0 0
Wind_Speed_500mb
26 31 32 33 35 37 39 45 50 54 73 70 76 80 77 73 63 57 53 51 51 50 52 46 43 49 53 52 47 48 52 49 58 65 87 68 47 54
31 31 30 30 34 38 42 44 44 46 44 74 83 81 75 71 70 61 57 51 46 47 46 42 37 39 43 41 39 36 42 51 45 68 78 67 60 61
28 29 29 34 37 39 41 41 42 49 56 79 80 82 83 73 68 60 54 51 48 46 45 37 38 37 43 37 32 31 33 45 51 63 74 71 62 70
27 28 32 35 35 43 49 50 50 55 63 72 81 86 85 67 68 61 54 53 48 44 35 36 44 35 31 29 29 32 31 42 50 65 76 76 70 82
29 31 35 39 43 47 50 53 53 57 54 63 74 79 88 85 76 67 56 48 46 40 41 46 45 34 26 22 19 18 27 28 41 58 81 98 89 81
30 32 37 38 43 49 52 50 54 58 51 62 68 77 81 86 78 78 72 57 49 34 46 39 41 36 18 15 20 25 15 27 29 41 61 76 96 90
29 33 36 37 36 41 47 49 53 58 53 57 61 70 74 75 76 71 68 66 49 50 55 45 52 42 20 12 7 19 28 20 14 15 32 61 63 83
31 30 34 38 40 38 43 48 55 58 54 55 60 59 64 64 63 65 62 66 53 54 59 54 52 42 34 9 3 5 15 32 28 6 6 50 68 63
31 36 40 44 48 48 42 43 53 55 52 51 55 53 56 62 63 64 65 59 53 52 52 55 54 50 48 30 5 7 16 18 17 16 19 21 29 66
36 41 46 49 53 53 51 49 52 57 56 51 47 47 45 51 59 58 53 59 56 46 40 44 55 40 48 39 30 23 9 7 9 16 5 22 25 35
41 47 51 55 57 53 50 51 52 54 45 43 39 39 41 46 50 53 64 59 55 45 54 43 48 39 42 40 34 28 21 9 9 8 9 21 18 29
39 45 51 55 55 51 45 47 49 52 52 50 51 45 43 45 52 48 56 52 49 31 51 45 46 44 24 35 36 38 23 19 16 9 2 4 9 12
45 50 55 58 55 46 38 39 43 44 48 50 52 47 50 58 54 53 42 50 45 42 41 40 44 42 33 41 29 31 29 27 17 9 3 7 16 19
49 53 54 53 49 42 34 31 32 37 43 48 50 53 52 53 56 49 44 44 44 39 37 36 36 38 41 42 42 39 25 31 16 9 8 5 0 9
49 52 50 45 41 34 30 29 31 35 42 48 50 52 53 47 44 49 49 48 43 41 40 42 39 39 39 39 40 35 41 34 26 20 18 14 9 2
46 47 45 42 38 35 30 30 31 34 41 43 48 47 47 49 48 53 50 56 52 52 52 52 46 39 34 38 39 23 25 23 22 20 17 16 16 10
41 40 41 41 39 37 37 35 33 32 36 41 43 48 49 53 53 57 52 49 54 58 54 47 47 46 39 41 41 34 36 29 24 15 7 12 16 20
38 41 44 47 49 50 48 45 44 42 40 38 40 41 47 51 53 54 56 58 50 51 57 50 39 40 43 39 50 42 37 34 27 22 15 13 14 18
37 41 43 46 48 49 49 50 52 49 48 45 41 40 40 41 47 49 49 52 53 53 55 55 49 47 43 39 46 48 44 41 36 24 19 16 13 21
38 41 43 44 45 47 46 46 47 50 51 48 47 46 45 44 43 43 48 48 48 50 49 54 49 42 38 37 40 43 43 40 39 38 30 23 17 28
35 37 40 41 42 43 42 43 46 52 56 57 55 53 51 49 46 44 41 39 41 42 45 46 44 40 34 35 42 41 41 39 37 39 40 31 21 35
32 33 36 38 40 41 40 41 43 48 56 60 60 60 60 59 54 49 45 41 41 41 38 32 30 34 42 44 43 38 38 35 35 34 37 37 36 30
32 33 34 35 38 39 40 42 45 48 53 58 59 59 62 64 60 57 51 46 40 38 39 38 32 29 35 37 39 40 37 39 39 36 37 39 38 40
Wind_Direction_500mb
14 12 11 12 8 1 354 351 350 339 336 340 342 352 348 346 338 334 324 320 321 323 327 317 301 299 283 282 282 274 263 254 241 235 230 208 212 222
21 17 12 10 3 356 355 352 347 341 327 342 346 344 343 339 337 339 336 326 323 326 330 329 315 307 303 283 276 276 264 242 244 225 204 218 211 211
18 15 9 3 5 3 3 358 357 356 348 349 352 354 351 349 346 337 336 335 336 327 327 328 319 306 310 301 271 267 261 247 228 211 214 217 210 215
21 12 9 6 10 9 6 4 1 0 356 350 356 1 358 355 347 344 338 338 339 338 329 333 326 302 301 318 287 258 257 250 236 228 214 214 218 208
23 19 13 8 11 6 2 2 2 1 357 352 352 0 3 4 357 358 351 346 347 345 341 342 336 314 296 311 315 312 261 261 243 230 227 218 220 222
34 27 17 19 13 7 6 3 357 356 355 357 355 359 3 4 3 2 359 358 351 353 356 358 354 343 310 312 1 352 297 256 262 240 228 233 225 228
37 30 28 32 21 13 6 3 359 355 354 353 354 356 358 0 5 8 9 9 15 6 4 9 3 355 334 246 9 353 349 342 284 251 230 222 207 211
33 27 25 26 25 19 17 11 1 355 357 354 355 351 352 353 358 4 7 6 356 2 6 8 10 11 8 324 203 62 41 14 8 333 221 210 210 215
30 23 19 16 14 16 15 9 5 5 6 358 356 357 352 357 354 354 354 354 356 0 357 7 12 19 33 27 327 235 320 348 5 355 225 172 205 224
23 13 8 3 1 3 3 4 4 10 9 4 3 1 356 3 360 355 353 355 1 10 2 355 10 19 29 43 34 16 319 310 355 5 279 231 218 207
17 8 5 1 357 352 352 358 7 10 14 2 1 4 6 359 360 356 357 355 356 16 7 1 6 17 22 24 31 26 24 333 318 12 29 177 186 213
12 7 3 359 356 350 347 354 3 7 8 8 19 17 13 9 7 5 8 6 12 3 8 6 7 8 359 21 21 22 26 18 358 334 329 214 191 187
6 2 359 356 354 350 348 353 360 360 8 9 17 18 15 23 17 20 12 11 17 15 12 9 8 9 8 359 8 12 360 3 2 13 17 217 214 220
5 2 358 355 351 351 353 356 354 3 12 13 21 19 22 22 28 25 17 15 15 12 9 7 5 3 358 358 358 12 24 6 47 44 49 41 332 236
3 0 354 353 355 357 1 1 1 7 14 18 22 27 25 24 22 27 27 25 24 20 15 11 15 26 24 14 9 24 22 36 56 71 64 66 60 27
1 357 357 0 6 11 10 9 7 12 18 19 20 22 21 19 27 26 25 21 24 23 22 24 22 16 20 29 25 28 35 41 39 46 37 33 32 27
0 354 3 12 19 25 25 21 18 16 20 19 18 18 16 21 29 26 27 20 21 15 17 24 29 32 26 22 30 32 33 31 26 23 21 27 45 34
356 11 17 18 21 24 25 26 24 20 22 19 19 21 14 18 26 27 23 23 27 19 21 23 29 27 29 35 34 38 38 31 28 30 47 36 24 10
12 21 22 22 21 22 26 27 27 24 21 19 16 16 15 13 21 20 23 22 21 23 19 25 30 31 35 34 32 35 39 37 41 41 36 49 38 11
24 25 26 25 25 24 26 30 30 28 28 25 22 17 12 12 10 15 22 22 20 21 27 25 28 30 35 31 23 23 27 31 37 42 42 28 27 7
26 27 27 27 28 29 31 33 31 30 29 28 27 25 20 18 15 13 12 17 23 21 23 26 26 26 25 35 31 26 25 34 38 36 36 39 41 26
25 27 28 27 27 29 31 33 33 32 31 29 27 25 24 23 21 20 15 12 17 25 26 19 20 24 32 34 32 33 37 37 41 42 42 38 34 28
21 25 27 29 29 29 29 30 31 31 30 28 26 24 22 22 24 25 23 22 21 18 21 26 27 28 29 31 33 35 38 42 42 43 41 35 34 33
Wind_Speed_850mb
26 31 32 33 35 37 39 45 50 54 73 70 76 80 77 73 63 57 53 51 51 50 52 46 43 49 53 52 47 48 52 49 58 65 87 68 47 54
31 31 30 30 34 38 42 44 44 46 44 74 83 81 75 71 70 61 57 51 46 47 46 42 37 39 43 41 39 36 42 51 45 68 78 67 60 61
28 29 29 34 37 39 41 41 42 49 56 79 80 82 83 73 68 60 54 51 48 46 45 37 38 37 43 37 32 31 33 45 51 63 74 71 62 70
27 28 32 35 35 43 49 50 50 55 63 72 81 86 85 67 68 61 54 53 48 44 35 36 44 35 31 29 29 32 31 42 50 65 76 76 70 82
29 31 35 39 43 47 50 53 53 57 54 63 74 79 88 85 76 67 56 48 46 40 41 46 45 34 26 22 19 18 27 28 41 58 81 98 89 81
30 32 37 38 43 49 52 50 54 58 51 62 68 77 81 86 78 78 72 57 49 34 46 39 41 36 18 15 20 25 15 27 29 41 61 76 96 90
29 33 36 37 36 41 47 49 53 58 53 57 61 70 74 75 76 71 68 66 49 50 55 45 52 42 20 12 7 19 28 20 14 15 32 61 63 83
31 30 34 38 40 38 43 48 55 58 54 55 60 59 64 64 63 65 62 66 53 54 59 54 52 42 34 9 3 5 15 32 28 6 6 50 68 63
31 36 40 44 48 48 42 43 53 55 52 51 55 53 56 62 63 64 65 59 53 52 52 55 54 50 48 30 5 7 16 18 17 16 19 21 29 66
36 41 46 49 53 53 51 49 52 57 56 51 47 47 45 51 59 58 53 59 56 46 40 44 55 40 48 39 30 23 9 7 9 16 5 22 25 35
41 47 51 55 57 53 50 51 52 54 45 43 39 39 41 46 50 53 64 59 55 45 54 43 48 39 42 40 34 28 21 9 9 8 9 21 18 29
39 45 51 55 55 51 45 47 49 52 52 50 51 45 43 45 52 48 56 52 49 31 51 45 46 44 24 35 36 38 23 19 16 9 2 4 9 12
45 50 55 58 55 46 38 39 43 44 48 50 52 47 50 58 54 53 42 50 45 42 41 40 44 42 33 41 29 31 29 27 17 9 3 7 16 19
49 53 54 53 49 42 34 31 32 37 43 48 50 53 52 53 56 49 44 44 44 39 37 36 36 38 41 42 42 39 25 31 16 9 8 5 0 9
49 52 50 45 41 34 30 29 31 35 42 48 50 52 53 47 44 49 49 48 43 41 40 42 39 39 39 39 40 35 41 34 26 20 18 14 9 2
46 47 45 42 38 35 30 30 31 34 41 43 48 47 47 49 48 53 50 56 52 52 52 52 46 39 34 38 39 23 25 23 22 20 17 16 16 10
41 40 41 41 39 37 37 35 33 32 36 41 43 48 49 53 53 57 52 49 54 58 54 47 47 46 39 41 41 34 36 29 24 15 7 12 16 20
38 41 44 47 49 50 48 45 44 42 40 38 40 41 47 51 53 54 56 58 50 51 57 50 39 40 43 39 50 42 37 34 27 22 15 13 14 18
37 41 43 46 48 49 49 50 52 49 48 45 41 40 40 41 47 49 49 52 53 53 55 55 49 47 43 39 46 48 44 41 36 24 19 16 13 21
38 41 43 44 45 47 46 46 47 50 51 48 47 46 45 44 43 43 48 48 48 50 49 54 49 42 38 37 40 43 43 40 39 38 30 23 17 28
35 37 40 41 42 43 42 43 46 52 56 57 55 53 51 49 46 44 41 39 41 42 45 46 44 40 34 35 42 41 41 39 37 39 40 31 21 35
32 33 36 38 40 41 40 41 43 48 56 60 60 60 60 59 54 49 45 41 41 41 38 32 30 34 42 44 43 38 38 35 35 34 37 37 36 30
32 33 34 35 38 39 40 42 45 48 53 58 59 59 62 64 60 57 51 46 40 38 39 38 32 29 35 37 39 40 37 39 39 36 37 39 38 40
Wind_Direction_850mb
14 12 11 12 8 1 354 351 350 339 336 340 342 352 348 346 338 334 324 320 321 323 327 317 301 299 283 282 282 274 263 254 241 235 230 208 212 222
21 17 12 10 3 356 355 352 347 341 327 342 346 344 343 339 337 339 336 326 323 326 330 329 315 307 303 283 276 276 264 242 244 225 204 218 211 211
18 15 9 3 5 3 3 358 357 356 348 349 352 354 351 349 346 337 336 335 336 327 327 328 319 306 310 301 271 267 261 247 228 211 214 217 210 215
21 12 9 6 10 9 6 4 1 0 356 350 356 1 358 355 347 344 338 338 339 338 329 333 326 302 301 318 287 258 257 250 236 228 214 214 218 208
23 19 13 8 11 6 2 2 2 1 357 352 352 0 3 4 357 358 351 346 347 345 341 342 336 314 296 311 315 312 261 261 243 230 227 218 220 222
34 27 17 19 13 7 6 3 357 356 355 357 355 359 3 4 3 2 359 358 351 353 356 358 354 343 310 312 1 352 297 256 262 240 228 233 225 228
37 30 28 32 21 13 6 3 359 355 354 353 354 356 358 0 5 8 9 9 15 6 4 9 3 355 334 246 9 353 349 342 284 251 230 222 207 211
33 27 25 26 25 19 17 11 1 355 357 354 355 351 352 353 358 4 7 6 356 2 6 8 10 11 8 324 203 62 41 14 8 333 221 210 210 215
30 23 19 16 14 16 15 9 5 5 6 358 356 357 352 357 354 354 354 354 356 0 357 7 12 19 33 27 327 235 320 348 5 355 225 172 205 224
23 13 8 3 1 3 3 4 4 10 9 4 3 1 356 3 360 355 353 355 1 10 2 355 10 19 29 43 34 16 319 310 355 5 279 231 218 207
17 8 5 1 357 352 352 358 7 10 14 2 1 4 6 359 360 356 357 355 356 16 7 1 6 17 22 24 31 26 24 333 318 12 29 177 186 213
12 7 3 359 356 350 347 354 3 7 8 8 19 17 13 9 7 5 8 6 12 3 8 6 7 8 359 21 21 22 26 18 358 334 329 214 191 187
6 2 359 356 354 350 348 353 360 360 8 9 17 18 15 23 17 20 12 11 17 15 12 9 8 9 8 359 8 12 360 3 2 13 17 217 214 220
5 2 358 355 351 351 353 356 354 3 12 13 21 19 22 22 28 25 17 15 15 12 9 7 5 3 358 358 358 12 24 6 47 44 49 41 332 236
3 0 354 353 355 357 1 1 1 7 14 18 22 27 25 24 22 27 27 25 24 20 15 11 15 26 24 14 9 24 22 36 56 71 64 66 60 27
1 357 357 0 6 11 10 9 7 12 18 19 20 22 21 19 27 26 25 21 24 23 22 24 22 16 20 29 25 28 35 41 39 46 37 33 32 27
0 354 3 12 19 25 25 21 18 16 20 19 18 18 16 21 29 26 27 20 21 15 17 24 29 32 26 22 30 32 33 31 26 23 21 27 45 34
356 11 17 18 21 24 25 26 24 20 22 19 19 21 14 18 26 27 23 23 27 19 21 23 29 27 29 35 34 38 38 31 28 30 47 36 24 10
12 21 22 22 21 22 26 27 27 24 21 19 16 16 15 13 21 20 23 22 21 23 19 25 30 31 35 34 32 35 39 37 41 41 36 49 38 11
24 25 26 25 25 24 26 30 30 28 28 25 22 17 12 12 10 15 22 22 20 21 27 25 28 30 35 31 23 23 27 31 37 42 42 28 27 7
26 27 27 27 28 29 31 33 31 30 29 28 27 25 20 18 15 13 12 17 23 21 23 26 26 26 25 35 31 26 25 34 38 36 36 39 41 26
25 27 28 27 27 29 31 33 33 32 31 29 27 25 24 23 21 20 15 12 17 25 26 19 20 24 32 34 32 33 37 37 41 42 42 38 34 28
21 25 27 29 29 29 29 30 31 31 30 28 26 24 22 22 24 25 23 22 21 18 21 26 27 28 29 31 33 35 38 42 42 43 41 35 34 33